Вернуться в каталог

SL-12 R/B(2)

АктивенGEO
NORAD 12850·ROCKET BODY·🇷🇺 Russia

Запущен Jul 30, 1981 с Baikonur Cosmodrome

Loading…

TLE

СвежийSource: Space-Track

Эпоха: Sep 14, 2026, 15:50 UTC

1 12850U 81069F   26257.66029473 -.00000034  00000-0  00000-0 0  9997
2 12850   7.9430 299.1041 0020652 193.8838 168.6125  0.97699102117104

Отслеживайте SL-12 R/B(2) в реальном времени с AllMySat

Download on the App Store